| time (UTC) | temp F | wind direction | speed knots | gust knots | rain 1hr in | rain 24hr in | rain mn in | humidity % | barometer mb |
| 20260506044504 | 40 | 9 | 0.0 | 0.0 | 0.00 | 0.00 | 0.00 | 96 | 1011.5 |
| 20260506041503 | 37 | 9 | 0.0 | 2.6 | 0.00 | 0.00 | 0.00 | 95 | 1011.3 |
| 20260506040004 | 38 | 12 | 1.7 | 5.2 | 0.00 | 0.00 | 0.00 | 96 | 1011.2 |
| 20260506034504 | 36 | 345 | 2.6 | 4.3 | 0.00 | 0.00 | 0.00 | 96 | 1011.2 |
| 20260506033005 | 36 | 342 | 1.7 | 2.6 | 0.00 | 0.00 | 0.00 | 95 | 1011.2 |
| 20260506031504 | 36 | 342 | 0.0 | 4.3 | 0.00 | 0.00 | 0.00 | 95 | 1011.2 |
| 20260506030003 | 36 | 343 | 0.0 | 2.6 | 0.00 | 0.00 | 0.00 | 96 | 1011.1 |
| 20260506024503 | 36 | 342 | 0.0 | 0.0 | 0.00 | 0.00 | 0.00 | 96 | 1011.1 |
| 20260506023005 | 35 | 343 | 0.0 | 0.0 | 0.00 | 0.00 | 0.00 | 96 | 1011.1 |
| 20260506021504 | 34 | 343 | 0.0 | 0.0 | 0.00 | 0.00 | 0.00 | 95 | 1011.0 |
| 20260506020004 | 33 | 343 | 0.0 | 0.0 | 0.00 | 0.00 | 0.00 | 95 | 1011.0 |
| 20260506013004 | 33 | 343 | 0.0 | 2.6 | 0.00 | 0.00 | 0.00 | 94 | 1010.7 |
| 20260506011504 | 33 | 342 | 1.7 | 4.3 | 0.00 | 0.00 | 0.00 | 94 | 1010.5 |
| 20260506010004 | 33 | 342 | 1.7 | 5.2 | 0.00 | 0.00 | 0.00 | 94 | 1010.5 |
| 20260506004504 | 33 | 344 | 2.6 | 4.3 | 0.00 | 0.00 | 0.00 | 94 | 1010.0 |
| 20260506003004 | 33 | 344 | 0.0 | 4.3 | 0.00 | 0.00 | 0.00 | 94 | 1010.0 |
| 20260506001503 | 34 | 342 | 2.6 | 5.2 | 0.00 | 0.00 | 0.00 | 94 | 1010.0 |
| 20260506000004 | 34 | 343 | 2.6 | 5.2 | 0.00 | 0.00 | 0.00 | 93 | 1010.0 |
| 20260505234503 | 35 | 341 | 1.7 | 4.3 | 0.00 | 0.00 | 0.00 | 93 | 1010.0 |
| 20260505233004 | 36 | 343 | 2.6 | 4.3 | 0.00 | 0.00 | 0.00 | 94 | 1010.0 |
| 20260505231503 | 35 | 348 | 1.7 | 5.2 | 0.00 | 0.00 | 0.00 | 93 | 1009.8 |
| 20260505223004 | 36 | 347 | 1.7 | 6.1 | 0.00 | 0.00 | 0.00 | 92 | 1010.0 |
| 20260505221504 | 38 | 354 | 2.6 | 7.8 | 0.00 | 0.00 | 0.00 | 94 | 1009.8 |
| 20260505214503 | 36 | 27 | 0.0 | 0.0 | 0.00 | 0.00 | 0.00 | 92 | 1009.2 |
| 20260505213004 | 36 | 27 | 0.0 | 0.0 | 0.00 | 0.00 | 0.00 | 92 | 1009.2 |
| 20260505211504 | 37 | 27 | 1.7 | 4.3 | 0.00 | 0.00 | 0.00 | 91 | 1009.3 |
| 20260505210003 | 37 | 43 | 1.7 | 4.3 | 0.00 | 0.00 | 0.00 | 90 | 1009.0 |
| 20260505204504 | 38 | 58 | 2.6 | 4.3 | 0.00 | 0.00 | 0.00 | 90 | 1008.8 |
| 20260505203004 | 39 | 70 | 1.7 | 2.6 | 0.00 | 0.00 | 0.00 | 89 | 1008.8 |
| 20260505201504 | 39 | 71 | 1.7 | 4.3 | 0.00 | 0.00 | 0.00 | 88 | 1008.8 |
| 20260505194504 | 42 | 98 | 0.0 | 0.0 | 0.00 | 0.00 | 0.00 | 85 | 1008.3 |
| 20260505193004 | 43 | 98 | 0.0 | 0.0 | 0.00 | 0.00 | 0.00 | 84 | 1008.3 |
| 20260505191504 | 44 | 98 | 0.0 | 0.0 | 0.00 | 0.00 | 0.00 | 81 | 1008.2 |
| 20260505184504 | 50 | 98 | 0.9 | 4.3 | 0.00 | 0.00 | 0.00 | 71 | 1008.1 |
| 20260505181503 | 52 | 110 | 1.7 | 7.0 | 0.00 | 0.00 | 0.00 | 65 | 1007.9 |
| 20260505180004 | 53 | 103 | 0.9 | 6.1 | 0.00 | 0.00 | 0.00 | 63 | 1007.5 |
| 20260505174504 | 54 | 109 | 0.9 | 8.7 | 0.00 | 0.00 | 0.00 | 61 | 1007.5 |
| 20260505173003 | 55 | 100 | 4.3 | 10.4 | 0.00 | 0.00 | 0.00 | 59 | 1007.5 |
| 20260505171505 | 55 | 101 | 5.2 | 8.7 | 0.00 | 0.00 | 0.00 | 57 | 1007.3 |
| 20260505170003 | 56 | 76 | 5.2 | 10.4 | 0.00 | 0.00 | 0.00 | 52 | 1007.3 |
| 20260505164504 | 57 | 79 | 6.1 | 11.3 | 0.00 | 0.00 | 0.00 | 50 | 1007.3 |
| 20260505163004 | 58 | 63 | 5.2 | 10.4 | 0.00 | 0.00 | 0.00 | 44 | 1007.3 |
| 20260505161503 | 58 | 61 | 2.6 | 10.4 | 0.00 | 0.00 | 0.00 | 36 | 1007.3 |
| 20260505153004 | 63 | 84 | 2.6 | 7.8 | 0.00 | 0.00 | 0.00 | 27 | 1007.1 |
| 20260505151503 | 63 | 302 | 3.5 | 12.2 | 0.00 | 0.00 | 0.00 | 25 | 1007.1 |
| 20260505124505 | 64 | 285 | 5.2 | 12.2 | 0.00 | 0.00 | 0.00 | 32 | 1007.2 |
| 20260505123004 | 63 | 322 | 6.1 | 11.3 | 0.00 | 0.00 | 0.00 | 36 | 1007.2 |
| 20260505121503 | 61 | 307 | 1.7 | 12.2 | 0.00 | 0.00 | 0.00 | 36 | 1007.2 |
| 20260505114503 | 63 | 266 | 3.5 | 13.9 | 0.00 | 0.00 | 0.00 | 38 | 1007.1 |
| 20260505111503 | 63 | 242 | 8.7 | 14.8 | 0.00 | 0.00 | 0.00 | 40 | 1007.2 |
| 20260505101504 | 61 | 257 | 4.3 | 13.9 | 0.00 | 0.00 | 0.00 | 43 | 1007.2 |
| 20260505094505 | 60 | 247 | 9.6 | 15.6 | 0.00 | 0.00 | 0.00 | 44 | 1007.3 |
| 20260505093004 | 61 | 291 | 5.2 | 13.0 | 0.00 | 0.00 | 0.00 | 45 | 1007.3 |
| 20260505091504 | 61 | 303 | 7.8 | 12.2 | 0.00 | 0.00 | 0.00 | 47 | 1007.3 |
| 20260505090005 | 59 | 286 | 5.2 | 14.8 | 0.00 | 0.00 | 0.00 | 50 | 1007.3 |
| 20260505084503 | 59 | 278 | 5.2 | 13.0 | 0.00 | 0.01 | 0.00 | 54 | 1007.4 |
| 20260505081503 | 57 | 248 | 7.8 | 13.0 | 0.00 | 0.01 | 0.00 | 58 | 1007.4 |
| 20260505080004 | 56 | 273 | 6.1 | 13.9 | 0.00 | 0.01 | 0.00 | 60 | 1007.4 |
| 20260505074503 | 57 | 263 | 6.1 | 13.9 | 0.00 | 0.01 | 0.00 | 60 | 1007.4 |
| 20260505073004 | 56 | 263 | 3.5 | 10.4 | 0.00 | 0.01 | 0.00 | 63 | 1007.5 |
| 20260505071504 | 55 | 250 | 4.3 | 13.0 | 0.00 | 0.01 | 0.00 | 66 | 1007.5 |